Flag Weather past 2 weeks in Koszalin, Poland

Now
33 °F

Fog.


Feels Like: 33 °F
Forecast: 27 / 31 °F
Wind: 2 mph from East

Location: Koszalin

Current Time: Nov 28, 2014 at 6:56:52 AM

Latest Report: Nov 28, 2014 at 6:00 AM


Visibility: 4 mi

Pressure: 30.23 "Hg

Humidity: 83%

Dew point: 28 °F

Location of KoszalinLocation

Historic Weather in Koszalin — Graph

°F

Koszalin temperature yesterday

Maximum temperature yesterday: 37 °F (at 1:00 PM)
Minimum temperature yesterday: 31 °F (at 6:00 AM)
Average temperature yesterday: 34 °F

Past Weeks' High & Low Weather Summary

 TemperatureHumidityPressure
High50 °F (Nov 14, 3:00 PM)97% (Nov 25, 9:00 PM)30.37 "Hg (Nov 25, 9:00 PM)
Low31 °F (Nov 27, 6:00 AM)64% (Nov 22, 2:00 PM)29.78 "Hg (Nov 16, 3:00 PM)
Average41 °F87%30.15 "Hg
* Reported Nov 13 5:00 AM — Nov 28 5:00 AM, Koszalin, Weather by CustomWeather, © 2014

Note: Actual official high and low records may vary slightly from our data, if they occured in-between our weather recording intervals... More about our weather records

Advertising

Koszalin weather history for previous 24 hours

 ConditionsComfort  
Time TempWeatherWind HumidityBarometerVisibility
5:00 AM
Nov 28
33 °FFog.2 mph84%30.23 "Hg4 mi
4:00 AM33 °FFog.3 mph84%30.23 "Hg4 mi
3:00 AM35 °FFog.3 mph86%30.22 "Hg3 mi
2:00 AM35 °FFog.2 mph86%30.22 "Hg3 mi
1:00 AM35 °FFog.2 mph88%30.22 "Hg2 mi
12:00 AM35 °FFog.2 mph88%30.21 "Hg2 mi
11:00 PM
Nov 27
35 °FFog.3 mph89%30.20 "Hg2 mi
10:00 PM35 °FFog.2 mph89%30.20 "Hg3 mi
9:00 PM35 °FFog.2 mph88%30.20 "Hg3 mi
8:00 PM35 °FFog.3 mph88%30.18 "Hg4 mi
7:00 PM34 °FFog.3 mph88%30.17 "Hg4 mi
6:00 PM34 °FFog.3 mph88%30.17 "Hg4 mi
5:00 PM34 °FFog.3 mph89%30.17 "Hg4 mi
4:00 PM34 °FFog.2 mph89%30.17 "Hg4 mi
3:00 PM36 °FFog.2 mph87%30.16 "Hg4 mi
2:00 PM37 °FFog.3 mph83%30.16 "Hg5 mi
1:00 PM37 °FFog.2 mph84%30.18 "Hg4 mi
12:00 PM36 °FFog.3 mph89%30.19 "Hg4 mi
11:00 AM35 °FFog.5 mph91%30.19 "Hg2 mi
10:00 AM35 °FFog.5 mph97%30.19 "Hg2 mi
9:00 AM34 °FFog.5 mph97%30.19 "Hg1 mi
8:00 AM33 °FFog.5 mph97%30.19 "Hg1 mi
7:00 AM33 °FFog.3 mph97%30.19 "Hg1 mi
6:00 AM31 °FFog.3 mph97%30.19 "Hg0 mi
Weather by CustomWeather, © 2014

See weather overviewHow to use our weather pages